Powrót do katalogu

STARLINK-35343

AktywnyŁącznośćVLEO
NORAD 67334·PAYLOAD·🇺🇸 United States

Wystrzelony Jan 9, 2026 z Cape Canaveral Space Force Station

Loading…

Następne Przeloty (najbliższe 24 godziny)

TLE

ŚwieżeSource: CelesTrak SupGP

Epoka: Sep 14, 2026, 15:34 UTC

1 67334C 26003A   26257.64909722 -.00035362  00000+0 -12813-2 0  2579
2 67334  43.0003 239.9740 0001373 267.8984  41.1296 15.27584682    19

Śledź STARLINK-35343 w czasie rzeczywistym z AllMySat

Download on the App Store